User: anonymous   Login
Location: Helsinki
(60.1699°N, 24.9384°E)
Time: 18:45:28
(UTC+03:00)
Language:

N. Korean satellite - Orbit

View from above orbital plane
View from above orbital plane
View from above satellite
View from above satellite

Ground track
Ground track

The orbit data is extracted from the following two-line orbital elements,

1 39026U 12072A   22273.72581970  .00026589  00000-0  66546-3 0  9997
2 39026  97.2764 263.4886 0030275 136.4406 223.9239 15.39588939545100
Epoch (UTC): 30 September 2022 17:25:10
Eccentricity: 0.0030275
inclination: 97.2764°
perigee height: 426 km
apogee height: 468 km
right ascension of ascending node: 263.4886°
argument of perigee: 136.4406°
revolutions per day: 15.39588939
mean anomaly at epoch: 223.9239°
orbit number at epoch: 54510

The dashed part of the orbit path shows where the satellite is in the earth's shadow,  

DLR